STARLINK-11242, 60903

Orbit data source: Space-Track

STARLINK-11242, 60903 is a payload satellite owned by SpaceX/Seattle (US) in LEO that was launched on Sat, 31 Aug 2024 UTC via an FALCON 9 launch vehicle from the Air Force Eastern Test Range (AFETR). Payload-class satellites include a variety of spacecraft equipped with specific instruments for various scientific and technological missions. These include communications satellites like Starlink; space stations such as the ISS; scientific satellites like the Hubble; Earth observation satellites from companies like Planet Labs, Umbra, and HawkEye 360; GPS; miniature CubeSats for education and research; and military/defense satellites.

Loading next visibility...
Identifier
60903, 2024-154A
Orbit
LEO
Country
Flag of USUS
Related business
Manufacturer
SpaceX/Seattle
Mission
Operational Commercial Communications
Bus & Motor
STARLINK V2MD, Unknown motor
Mass
960 kg wet, ~910 kg dry
Launch date (UTC)
2024-08-31 (2 years ago)
Launch vehicle
FALCON 9
Launch site
Air Force Eastern Test Range (AFETR)
Object type
Payload
Rocket body
Debris
Shape & HBR
Box + 2 Pan, 18.1 m
Radar Cross Section
36.964 m², Large (>1 m²)

Expand to show TLE details & history
Last TLE update: 1 day ago

TLE from 1 day ago
0 STARLINK-11242
1 60903U 24154A   26175.11778321  .00000165  00000-0  62204-5 0  9996
2 60903  53.1587 326.3556 0000895  99.3791 260.7328 15.69709627105230
Epoch: 2026-06-24T02:49Z
TLE epoch observation values (Epoch: 2026-06-24T02:49:36.469Z)
Latitude
-0.00002°
Longitude
11.67404°
Altitude
360.74 km
Speed
7.694 km/s
True Right ascension
21h 45m 25s
True Declination
0° 00' 00"
Sunlit
Object was in full shadow at epoch
Visualization orbit readout
Latitude
Unknown
Longitude
Unknown
Altitude
Unknown
Speed
Unknown
Apparent Right ascension
Unknown
Apparent Declination
Unknown
Sunlit
N/A
Visualization observer readout
Local Sidereal Time
16:59:19
Azimuth
Unknown
Elevation
Unknown
Doppler factor
Unknown
Orbital elements
Apogee altitude
360.592 km
Perigee altitude
359.386 km
Semi-major axis
6,738.126 km
Eccentricity
0.00009
Inclination
53.1587°
RAAN
326.3556°
Arg. of periapsis
99.3791°
True anomaly
260.72268°
Mean anomaly
260.7328°
Eccentric anomaly
260.72774°
Mean motion
3.92405 °/min
Orbital period
91.74 mins
BSTAR
0.0000062204
Loading maneuver chart data...
Computing Atmospheric mass density...
Loading historical data...
Loading historical data...
Loading historical data...
Loading historical data...
Loading historical data...
Loading historical data...
Loading historical data...

Documentation

Showing up to 5 results
|